Location: Unspecified
(0.0000°N, 0.0000°E)
Time: 11:19:07
(UTC+00:00)

ITUPSAT 1 - Visible Passes

Search period start: 04 December 2022 00:00
Search period end: 14 December 2022 00:00
Orbit: 700 x 710 km, 98.5° (Epoch: 03 December)

Date Brightness Start Highest point End Pass type
(mag) Time Alt. Az. Time Alt. Az. Time Alt. Az.
05 Dec ? 20:05:56 13° SSE 20:05:56 13° SSE 20:06:26 10° S visible
06 Dec ? 20:50:05 11° SSW 20:50:05 11° SSW 20:50:13 10° SSW visible
07 Dec ? 19:55:17 12° SSE 19:55:17 12° SSE 19:55:39 10° SSE visible
08 Dec ? 20:39:27 13° SSW 20:39:27 13° SSW 20:39:55 10° SSW visible
09 Dec ? 19:44:39 10° SSE 19:44:39 10° SSE 19:44:42 10° SSE visible
10 Dec ? 20:28:48 14° S 20:28:48 14° S 20:29:30 10° S visible
12 Dec ? 20:18:08 15° S 20:18:08 15° S 20:18:59 10° S visible
